[[{"header":{"parameterUnit":"m.s-1","parameterCategory":1,"la1":30.2992,"la2":30.254,"lo1":-89.0895,"lo2":-89.0443,"dy":0.0025,"dx":0.0025,"nx":19,"ny":19,"refTime":"2026-05-23T09:00:00:Z","depth":0,"parameterNumber":2,"parameterNumberName":"U-component_of_WINDS"},"data":[0,0,0,-3.2969,-3.2969,-3.295,-3.295,-3.2937,-3.2937,0,0,0,0,0,0,0,0,0,0,0,-3.2983,-3.2983,-3.2969,-3.2969,-3.295,-3.295,-3.2937,-3.2937,0,0,0,0,0,0,0,0,0,0,0,-3.2983,-3.2983,-3.2984,-3.2969,-3.295,-3.295,-3.2937,-3.2947,0,0,0,0,0,0,0,0,0,0,-3.2964,-3.2985,-3.2983,-3.2984,-3.2969,-3.295,-3.295,-3.2947,-3.2946,-3.2951,0,-3.2958,0,-3.2948,-3.2937,-3.2937,0,0,0,-3.2963,-3.2985,-3.2973,-3.2984,-3.2969,-3.295,-3.2957,-3.2947,-3.2946,-3.295,-3.2958,-3.2957,-3.2948,-3.2937,-3.2937,-3.2989,-3.299,0,0,-3.2964,-3.2984,-3.2974,-3.2973,-3.2978,-3.2957,-3.2956,-3.2946,-3.2955,-3.2958,-3.2957,-3.2947,-3.2937,-3.2937,-3.2989,-3.2989,0,0,0,-3.2971,-3.2985,-3.2972,-3.2974,-3.2969,-3.2957,-3.2956,-3.2956,-3.295,-3.2957,-3.2947,-3.2937,-3.2937,-3.2988,-3.2989,-3.3036,0,0,0,-3.2971,-3.2989,-3.2973,-3.2985,-3.297,-3.2963,-3.2966,-3.2951,-3.2949,-3.2947,-3.2937,-3.2937,-3.2987,-3.2989,-3.3033,-3.3054,0,0,0,-3.2982,-3.299,-3.299,-3.2986,-3.2979,-3.2962,-3.2956,-3.295,-3.2944,-3.2937,-3.2937,-3.2987,-3.2988,-3.3031,-3.305,-3.3074,0,0,0,-3.2998,-3.3032,-3.2992,-3.3026,-3.2979,-3.2992,-3.2956,-3.2964,-3.2964,-3.2937,-3.2988,-3.2989,-3.303,-3.3048,-3.3071,-3.3097,-3.3109,0,0,-3.3052,-3.3039,-3.3057,-3.3021,-3.3046,-3.2994,-3.3025,-3.3005,-3.2985,-3.2989,-3.299,-3.3034,-3.305,-3.3073,-3.3175,-3.3185,0,0,0,-3.3081,-3.3094,-3.3097,-3.3098,-3.3085,-3.3075,-3.3048,-3.3041,-3.3043,-3.2992,-3.3049,-3.3057,-3.307,-3.3081,-3.309,-3.3099,-3.2995,-3.2995,-3.2995,-3.3185,-3.3159,-3.3188,-3.316,-3.3162,-3.3135,-3.3134,-3.312,-3.3092,-3.3106,-3.3107,-3.3172,-3.3186,-3.3192,-3.3202,-3.3119,-3.3119,-3.3119,-3.3119,-3.326,-3.3275,-3.324,-3.3255,-3.3227,-3.3239,-3.3215,-3.3195,-3.3202,-3.3169,-3.3179,-3.3144,-3.3204,-3.3211,-3.3122,-3.3122,-3.3121,-3.3121,-3.3121,-3.3325,-3.3327,-3.3319,-3.3319,-3.3322,-3.3293,-3.3302,-3.3276,-3.3252,-3.3262,-3.3259,-3.3259,-3.3254,-3.3263,-3.3263,-3.3263,-3.3264,-3.3264,-3.3264,-3.3394,-3.3384,-3.3394,-3.3384,-3.3382,-3.3376,-3.3351,-3.3348,-3.3338,-3.3318,-3.3318,-3.3289,-3.3215,-3.3197,-3.3267,-3.3267,-3.3266,-3.3266,-3.3266,-3.3479,-3.3456,-3.3473,-3.3471,-3.3457,-3.3462,-3.343,-3.3427,-3.342,-3.3425,-3.3395,-3.3345,-3.3329,-3.3322,-3.3306,-3.3401,-3.3401,-3.3401,-3.3401,-3.3533,-3.3523,-3.3535,-3.3534,-3.353,-3.3503,-3.3522,-3.3503,-3.3479,-3.3474,-3.3456,-3.3434,-3.3428,-3.3416,-3.3407,-3.3392,-3.3506,-3.3506,-3.3506,-3.3584,-3.3573,-3.3594,-3.3572,-3.3559,-3.3549,-3.3566,-3.3566,-3.3533,-3.351,-3.3469,-3.3464,-3.3428,-3.3417,-3.3391,-3.3378,-3.3349,0,0]},{"header":{"parameterUnit":"m.s-1","parameterCategory":1,"la1":30.2992,"la2":30.254,"lo1":-89.0895,"lo2":-89.0443,"dy":0.0025,"dx":0.0025,"nx":19,"ny":19,"refTime":"2026-05-23T09:00:00:Z","depth":0,"parameterNumber":3,"parameterNumberName":"V-component_of_WINDS"},"data":[0,0,0,4.4453,4.4455,4.4535,4.4535,4.4651,4.4652,0,0,0,0,0,0,0,0,0,0,0,4.4441,4.4442,4.4453,4.4456,4.4535,4.4535,4.4651,4.4652,0,0,0,0,0,0,0,0,0,0,0,4.444,4.4442,4.4443,4.4456,4.4535,4.4535,4.465,4.4585,0,0,0,0,0,0,0,0,0,0,4.4505,4.4505,4.4442,4.4443,4.4456,4.4535,4.4535,4.4581,4.4589,4.4622,0,4.4656,0,4.4656,4.4661,4.4661,0,0,0,4.4447,4.4499,4.451,4.4444,4.4457,4.4535,4.4497,4.4585,4.4594,4.4632,4.4657,4.4661,4.4658,4.4662,4.4662,4.488,4.4881,0,0,4.4443,4.4461,4.4505,4.4517,4.4507,4.4494,4.4499,4.459,4.4619,4.4658,4.4663,4.466,4.4663,4.4664,4.4878,4.488,0,0,0,4.4436,4.4459,4.4467,4.4512,4.4525,4.4497,4.4502,4.4615,4.4616,4.4665,4.4661,4.4663,4.4665,4.4877,4.4879,4.4963,0,0,0,4.4433,4.4454,4.4466,4.4478,4.4524,4.4572,4.4525,4.461,4.4619,4.466,4.4663,4.4666,4.4875,4.4878,4.4958,4.4999,0,0,0,4.4432,4.4454,4.447,4.4479,4.4513,4.457,4.4576,4.4611,4.4618,4.4661,4.4667,4.4874,4.4878,4.4953,4.4991,4.5058,0,0,0,4.4437,4.4547,4.4471,4.4593,4.4513,4.4623,4.4575,4.4656,4.4704,4.4664,4.4876,4.4879,4.4951,4.4986,4.5053,4.5115,4.5144,0,0,4.4586,4.4566,4.4635,4.457,4.4697,4.4609,4.4748,4.4776,4.4764,4.4841,4.4846,4.496,4.4991,4.5057,4.5306,4.5329,0,0,0,4.4688,4.4738,4.4768,4.4814,4.4836,4.4857,4.4861,4.487,4.4935,4.4808,4.5004,4.5022,4.506,4.5088,4.5108,4.5136,4.4894,4.4894,4.4893,4.4925,4.4901,4.5013,4.4998,4.5043,4.5043,4.5076,4.5088,4.5055,4.5101,4.5122,4.5276,4.5311,4.5325,4.5356,4.5157,4.5157,4.5158,4.5158,4.5137,4.5201,4.515,4.5239,4.5212,4.5287,4.529,4.5263,4.5326,4.5259,4.5291,4.5216,4.5351,4.5376,4.5164,4.5163,4.5162,4.5161,4.5161,4.5286,4.5312,4.5321,4.538,4.5429,4.541,4.5471,4.5447,4.5424,4.5457,4.5473,4.5472,4.5463,4.5467,4.5468,4.5468,4.5469,4.5469,4.5469,4.5435,4.5442,4.5497,4.5527,4.555,4.5577,4.5576,4.5598,4.5615,4.5592,4.5592,4.5549,4.537,4.5323,4.5477,4.5476,4.5475,4.5474,4.5474,4.5653,4.5598,4.5683,4.5706,4.5736,4.5782,4.575,4.5795,4.5809,4.5839,4.579,4.5663,4.564,4.5625,4.5585,4.5798,4.5798,4.5798,4.5798,4.5775,4.5761,4.5838,4.5875,4.5909,4.5887,4.5979,4.5977,4.5968,4.5974,4.5941,4.5887,4.5873,4.5858,4.5838,4.58,4.6063,4.6063,4.6063,4.5904,4.5892,4.5976,4.5964,4.5984,4.6001,4.6086,4.6128,4.6107,4.6073,4.5977,4.5966,4.588,4.5854,4.5816,4.5785,4.5715,0,0]}]]